Regional Weather Roundup
Issued by NWS

Home | Current Version | Previous Version | Text Only | Print | Product List | Glossary On
Versions: 1 2 3 4 5 6 7 8 9 10 11 12 13 14 15 16 17 18 19 20 21 22 23 24 25 26 27 28 29 30 31 32 33 34 35 36 37 38 39 40 41 42 43 44 45 46 47 48 49 50
000
ASUS43 KTOP 222159
RWRKS

WEATHER ROUNDUP FOR KANSAS
NATIONAL WEATHER SERVICE GOODLAND KS
500 PM CDT SAT JUL 22 2017

NOTE:  "FAIR" INDICATES FEW OR NO CLOUDS BELOW 12,000 FEET WITH NO
SIGNIFICANT WEATHER AND/OR OBSTRUCTIONS TO VISIBILITY.

KSZ001>006-013>018-027>032-041>047-222300-
NORTHWEST KANSAS

CITY           SKY/WX    TMP DP  RH WIND       PRES   REMARKS
GOODLAND       CLOUDY    79  50  36 NE15      30.08F
HAYS           FAIR     103  58  22 S14G20    29.81F HX 102
HILL CITY      PTSUNNY   90  62  39 N26G38    29.94R THUNDER HAZE
RUSSELL        FAIR     105  55  19 W13G20    29.80F HX 104
$$

KSZ061>065-074>080-084>089-222300-
SOUTHWEST KANSAS

CITY           SKY/WX    TMP DP  RH WIND       PRES   REMARKS
DODGE CITY     FAIR     101  50  18 MISG      29.89F HX  98
ELKHART          N/A     96  52  22 E5          N/A
GARDEN CITY    FAIR      97  54  23 VRB7      29.92F HX  95
LIBERAL        FAIR      99  58  25 N8        29.92F HX  98
$$

KSZ066>073-081>083-090>101-222300-
SOUTHEAST KANSAS

CITY           SKY/WX    TMP DP  RH WIND       PRES   REMARKS
CHANUTE        FAIR      99  71  40 S15       29.82F HX 107
COFFEYVILLE    FAIR      99  75  46 S13       29.82F HX 112
HUTCHINSON     FAIR     107  55  18 S12       29.80F HX 106
MEDICINE LODGE   N/A    106  52  16 SW12      29.81F HX 103
NEWTON         FAIR     104  61  24 S13       29.82F HX 105
PARSONS        FAIR      98  74  45 S9        29.84F HX 109
WICHITA INTL   FAIR     105  62  24 SW8       29.81F HX 107
WICHITA JABRA  FAIR     100  61  27 S14       29.82S HX 101
WINFIELD       FAIR     103  62  26 S10       29.83F HX 105
$$

KSZ007>012-019>026-033>040-048>060-102>105-222300-
NORTHEAST KANSAS

CITY           SKY/WX    TMP DP  RH WIND       PRES   REMARKS
CONCORDIA      FAIR      95  74  50 NE15G22   29.84F HX 105
EMPORIA        FAIR     102  69  34 S14       29.80F HX 109
LAWRENCE       FAIR      99  77  49 CALM      29.79F HX 114
MANHATTAN      FAIR     104  70  33 S7        29.78F HX 112
OLATHE IND     FAIR      98  74  45 NW9       29.82F HX 109
OLATHE EXE     FAIR      98  75  47 VRB5      29.81F HX 110
SALINA         PTSUNNY  108  55  17 E12G21    29.78F HX 107
TOPEKA BILLARD FAIR     101  75  43 E5        29.79F HX 114
TOPEKA FORBES  FAIR     103  74  39 N3        29.80F HX 115
$$



USA.gov is the U.S. government's official web portal to all federal, state and local government web resources and services.